This is the latest recevied weather packets stored in our database for station/object DG7YEO-13. If no packets are shown the sender has not sent any weather packets the latest 10 day(s).
| Time | Temp. | Humidity | Pressure | Rain* | Wind** | Luminosity | Snow |
|---|---|---|---|---|---|---|---|
| 1787432525 | 15° C | 77% | 1021.1 hPa | 0 mm | - | - | - |
| 1787431625 | 15.56° C | 76% | 1021.1 hPa | 0 mm | - | - | - |
| 1787430725 | 15.56° C | 75% | 1021.1 hPa | 0 mm | - | - | - |
| 1787429825 | 16.11° C | 74% | 1021 hPa | 0 mm | - | - | - |
| 1787428927 | 16.11° C | 73% | 1020.9 hPa | 0 mm | - | - | - |
| 1787428025 | 16.67° C | 72% | 1020.8 hPa | 0 mm | - | - | - |
| 1787427125 | 16.67° C | 71% | 1020.7 hPa | 0 mm | - | - | - |
| 1787426225 | 17.22° C | 69% | 1020.6 hPa | 0 mm | - | - | - |
| 1787425325 | 17.22° C | 67% | 1020.3 hPa | 0 mm | - | - | - |
| 1787424425 | 17.78° C | 66% | 1020.1 hPa | 0 mm | - | - | - |
| 1787423525 | 18.33° C | 65% | 1019.8 hPa | 0 mm | - | - | - |
| 1787422625 | 18.33° C | 65% | 1019.7 hPa | 0 mm | - | - | - |
| 1787421725 | 18.89° C | 64% | 1019.5 hPa | 0 mm | - | - | - |
| 1787420825 | 19.44° C | 63% | 1019.3 hPa | 0 mm | - | - | - |
| 1787419925 | 19.44° C | 61% | 1019.3 hPa | 0 mm | - | - | - |
| 1787419025 | 20° C | 60% | 1019.2 hPa | 0 mm | - | - | - |
| 1787418125 | 20.56° C | 59% | 1019 hPa | 0 mm | - | - | - |
| 1787417225 | 20.56° C | 59% | 1018.9 hPa | 0 mm | - | - | - |
| 1787416325 | 21.11° C | 56% | 1018.9 hPa | 0 mm | - | - | - |
| 1787415425 | 21.11° C | 53% | 1018.7 hPa | 0 mm | - | - | - |
| 1787414525 | 21.67° C | 54% | 1018.6 hPa | 0 mm | - | - | - |
| 1787413625 | 21.67° C | 54% | 1018.4 hPa | 0 mm | - | - | - |
| 1787412725 | 21.67° C | 54% | 1018.4 hPa | 0 mm | - | - | - |
| 1787411825 | 22.22° C | 54% | 1018.3 hPa | 0 mm | - | - | - |
| 1787410925 | 21.67° C | 56% | 1018.1 hPa | 0 mm | - | - | - |
* Rain latest hour (hover to see other rain measurements)
** Current wind speed in m/s (hover to see current wind gust speed)